Regional Weather Roundup
Issued by NWS

Home | Current Version | Previous Version | Graphics & Text | Print | Product List | Glossary On
Versions: 1 2 3 4 5 6 7 8 9 10 11 12 13 14 15 16 17 18 19 20 21 22 23 24 25 26 27 28
000
ASUS45 KTFX 192210
RWRMT
MONTANA REGIONAL WEATHER ROUNDUP
NATIONAL WEATHER SERVICE GREAT FALLS MT
300 PM MST MON FEB 19 2018

NOTE: "FAIR" INDICATES FEW OR NO CLOUDS BELOW 12000 FEET WITH NO
SIGNIFICANT WEATHER AND/OR OBSTRUCTIONS TO VISIBILITY.

MTZ001>007-043-192300-
WEST OF THE DIVIDE

CITY           SKY/WX    TMP DP  RH WIND       PRES   REMARKS
KALISPELL      FAIR      14  -5  42 SW3       29.97F
MISSOULA       CLOUDY    11  -6  46 W6        29.95F WCI   1
BUTTE          PTSUNNY    2 -10  57 NW5       29.72F
MULLAN PASS    CLOUDY     2  -2  83 CALM      29.68R
ANACONDA         N/A      0 -11  60 N6        29.80S WCI -12
DEER LODGE       N/A      1 -11  55 W3        29.84F
HAMILTON         N/A     10  -6  48 MISG      29.90S
RONAN            N/A     10  -2  56 SW6       29.99F WCI   1
$$

MTZ008-052>055-192300-
SOUTHWEST MONTANA

CITY           SKY/WX    TMP DP  RH WIND       PRES   REMARKS
BOZEMAN        FAIR       1  -9  62 NW5       29.86S
DILLON         FAIR      -4  -8  83 NE5       29.75S
ENNIS          SUNNY      1  -9  60 N9        29.79R WCI -14
W YELLOWSTONE  FAIR       7  -2  66 VRB6      29.51S WCI  -3
THREE FORKS      N/A      4 -11  50 W5        29.88S
TWIN BRIDGES     N/A      5 -13  43 CALM      29.80
$$

MTZ009-010-012-014-046-048-049-054-192300-
EAST SLOPES AND CENTRAL MONTANA

CITY           SKY/WX    TMP DP  RH WIND       PRES   REMARKS
CUT BANK       CLOUDY    -1  -7  75 SW6       29.94F WCI -13
GREAT FALLS    FAIR      -2  -9  72 W3        29.98S
MALMSTROM AFB  FAIR      -3  -7  82 E3        30.01S
HELENA         CLOUDY     5 -10  50 N5        29.92S
AUGUSTA        FAIR      -4  -8  83 CALM      29.89S
BOWMANS CRNR   FAIR      -5 -11  76 NE3       29.88F
CONRAD           N/A      1  -6  72 W1        30.00
FAIRFIELD      FLURRIES  -2  -8  74 CALM      29.95S
POWER          FAIR      -3  -9  76 W3        29.96F
RAYNESFORD     FAIR      -3 -10  74 NW5       29.95S
ULM            FAIR      -2  -8  76 SW3       29.99S
WHITE SULPHUR    N/A     -6 -13  71 CALM      29.80R
$$

MTZ011-013-016-021-045-047-050-051-192300-
NORTH CENTRAL MONTANA

CITY           SKY/WX    TMP DP  RH WIND       PRES   REMARKS
HAVRE          CLOUDY    -1  -6  79 SW6       30.09F HAZE    WCI -13
LEWISTOWN      CLOUDY    -4  -9  79 W6        29.92S WCI -16
N BAR RANCH    LGT SNOW  -2 -11  65 E7        29.90S WCI -16
CHINOOK          N/A      0  -6  78 W3        30.12S
GEYSER         FAIR      -3 -10  72 CALM      29.94R
STANFORD       FAIR      -5  -9  84 E3        29.90R
WINIFRED       PTSUNNY   -2  -6  82 NW7       29.98R WCI -15
$$

MTZ017>020-022>027-061-062-192300-
NORTHEAST MONTANA

CITY           SKY/WX    TMP DP  RH WIND       PRES   REMARKS
GLASGOW        FAIR       0  -6  76 NW7       30.12R WCI -13
GLENDIVE       LGT SNOW   6  -1  73 CALM      30.10S
JORDAN           N/A      5  -2  72 CALM      30.07R
MALTA          MOSUNNY    0  -6  78 SW6       30.12S WCI -12
SIDNEY         FAIR       6  -3  66 CALM      30.16R
WOLF POINT     CLOUDY     5  -3  69 CALM      30.17R HAZE
PLENTYWOOD       N/A      1  -6  71 CALM      30.12R
POPLAR           N/A      5  -6  61 CALM      30.17R
SCOBEY           N/A      2  -9  60 W1        30.07
$$

MTZ028>42-056>058-192300-
SOUTHCENTRAL AND SOUTHEAST MONTANA

CITY           SKY/WX    TMP DP  RH WIND       PRES   REMARKS
BAKER          LGT SNOW   2  -3  80 E5        30.02F
BILLINGS       CLOUDY     2  -5  72 N9        29.94F WCI -13
LIVINGSTON     FAIR       0  -7  72 E8        29.84F WCI -14
MILES CITY     LGT SNOW   4   0  83 NE8       30.04F VSB 1   WCI  -9
BIG TIMBER     SUNNY     -2 -11  65 N5        29.89F
EKALAKA          N/A      0 -10  62 NE8       29.91  WCI -14
FORSYTH          N/A      3   0  85 N3        30.03F
HARLOWTON      FAIR      -3 -10  70 CALM      29.88F
LAUREL           N/A      1  -8  66 N9        29.97S WCI -14
$$

REGIONAL REPORTS...DAKOTAS

CITY           SKY/WX    TMP DP  RH WIND       PRES   REMARKS
WILLISTON      FAIR       5  -3  69 CALM      30.15S
MINOT          CLOUDY     8  -3  61 CALM      30.15F
DICKINSON      LGT SNOW   3  -3  76 N8        30.03F VSB 1   WCI -10
BEACH          FAIR       3  -4  72 CALM      30.09S HAZE
CROSBY         FAIR       3  -4  72 SW5       30.15S
TIOGA          FAIR       3  -2  78 W5        30.13R
WATFORD CITY   FAIR       5  -2  72 CALM      30.13
BISMARCK       LGT SNOW   5  -3  69 NE13      30.16R WCI -12
GRAND FORKS    CLOUDY     6  -4  63 N17       30.23S WCI -13
FARGO          CLOUDY     9   0  67 N22       30.16R WCI -11
BUFFALO SD       N/A      2  -4  76 NE13      29.92R WCI -15
RAPID CITY     SNOW       0  -5  79 N14       29.93F VSB 1/2 WCI -19
$$

REGIONAL REPORTS...WYOMING/IDAHO/WASHINGTON

CITY           SKY/WX    TMP DP  RH WIND       PRES   REMARKS
GILLETTE       CLOUDY     0  -6  76 N15       29.78F HAZE    WCI -19
SHERIDAN       LGT SNOW   2  -3  80 NW7       29.88R WCI -11
BUFFALO WY     LGT SNOW   0  -6  76 N12       29.77R WCI -17
CODY           LGT SNOW  -3 -10  72 N12       29.77S VSB 1   WCI -21
YELLOWSTONE LA   N/A      7   0  73 VRB6      29.44S WCI  -3
IDAHO FALLS    FAIR      22   0  38 NE12      29.62R WCI  10
SALMON         CLOUDY    19   5  54 SW5       29.76F
BOISE          FAIR      30  10  43 NW23G31   29.81R WCI  17
SPOKANE        FAIR      19   0  43 NW10      30.02R WCI   7
$$

REGIONAL REPORTS...ALBERTA

CITY           SKY/WX    TMP DP  RH WIND       PRES   REMARKS
CALGARY        MOSUNNY    9  -9  43 N7        29.92S WCI  -3
CARDSTON         N/A      9  -4  56 S3          N/A
EDMONTON       CLOUDY    16  -2  45 W13G21    29.90F WCI   2
FORT MCMURRAY  FLURRIES  16   7  67 W14       29.81S WCI   1
HIGH LEVEL     LGT SNOW  14   9  79 N12G20    29.94R DRFTSNOWWCI   0
LETHBRIDGE     MOSUNNY    1  -8  66 SW6       30.01F WCI -10
LLOYDMINSTER   MOSUNNY    7  -2  66 SW17      29.89F WCI -12
MEDICINE HAT   PTSUNNY    3  -4  72 S13G20    30.07F WCI -14
MILK RIVER       N/A      1  -6  71 W7          N/A  WCI -11
PEACE RIVER    MOSUNNY   16  -2  45 W13       29.91F WCI   2
PINCHER CREEK  SUNNY     -4 -11  71 NW2       29.92S
WATERTON GATE    N/A      3  -2  78 NE5         N/A
$$

REGIONAL REPORTS...SASKATCHEWAN

CITY           SKY/WX    TMP DP  RH WIND       PRES   REMARKS
CORONACH         N/A      3  -6  66 W3          N/A
CYPRESS HILLS    N/A     -2  -8  78 NW5         N/A
ESTEVAN        CLOUDY     1  -6  71 W5        30.15R
MOOSE JAW        N/A      5  -4  66 W12         N/A  WCI -11
PRINCE ALBERT  MOSUNNY    5  -8  56 S15       30.03F WCI -13
REGINA         PTSUNNY    3  -4  72 SW8       30.11S WCI -10
ROCKGLEN         N/A      0  -8  71 W8          N/A  WCI -15
SASKATOON      MOSUNNY    5  -6  61 S13       30.09R WCI -12
SWIFT CURRENT  MOSUNNY    1  -6  71 SW13      30.01F WCI -16
VAL MARIE        N/A     -4  -9  77 S3          N/A
$$




USA.gov is the U.S. government's official web portal to all federal, state and local government web resources and services.